Location: Grums
(59.3529°N, 13.1129°E)
Time: 01:32:03
(UTC+01:00)

SEEDS - Pass Details

Date: 04 December 2021
Orbit: 584 x 600 km, 97.6° (Epoch: 27 January)

Event Time Altitude Azimuth Distance (km) Brightness Sun altitude
Rises 05:15:02 0° 15° (NNE) 2,830 ? -24.4°
Reaches altitude 10° 05:17:12 10° 14° (NNE) 1,923 ? -24.1°
Enters shadow 05:20:02 42° 6° (N) 847 ? -23.8°
